Location: La Oliva
(42.2466°N, 2.9955°E)
Time: 06:19:44
(UTC+00:00)

Cosmos 1076 Rocket - Pass Details

Date: 22 April 2021
Orbit: 589 x 613 km, 82.5° (Epoch: 07 May)

Event Time Altitude Azimuth Distance (km) Brightness Sun altitude
Rises 19:51:47 0° 353° (N) 2,873 7.6 -13.3°
Reaches altitude 10° 19:54:02 10° 355° (N) 1,961 6.6 -13.7°
Maximum altitude 19:58:22 76° 82° (E) 625 3.4 -14.4°
Enters shadow 20:01:45 16° 166° (SSE) 1,579 5.2 -14.9°
